EST,Max TemperatureF,Mean TemperatureF,Min TemperatureF,Max Dew PointF,MeanDew PointF,Min DewpointF,Max Humidity, Mean Humidity, Min Humidity, Max Sea Level PressureIn, Mean Sea Level PressureIn, Min Sea Level PressureIn, Max VisibilityMiles, Mean VisibilityMiles, Min VisibilityMiles, Max Wind SpeedMPH, Mean Wind SpeedMPH, Max Gust SpeedMPH,PrecipitationIn, CloudCover, Events, WindDirDegrees
2011-11-1,56,45,33,40,35,31,89,68,47,30.39,30.35,30.29,10,9,5,9,3,12,0.00,1,,348
2011-11-2,60,48,35,39,37,32,92,68,44,30.46,30.37,30.26,10,8,2,10,3,14,0.00,0,,136
2011-11-3,64,51,37,42,40,36,92,68,43,30.24,30.09,29.95,10,10,7,8,2,9,0.00,0,,159
2011-11-4,54,51,47,42,35,23,86,62,38,30.30,30.08,29.93,10,9,6,21,12,28,0.00,1,,21
2011-11-5,51,42,32,26,24,18,72,49,26,30.51,30.44,30.32,10,10,10,15,6,18,0.00,0,,50
2011-11-6,55,44,33,37,31,22,75,63,50,30.56,30.48,30.42,10,10,10,16,4,21,0.00,0,,157
2011-11-7,64,49,34,40,36,33,92,65,37,30.43,30.37,30.32,10,7,1,8,2,10,0.00,0,,144
2011-11-8,67,54,40,43,38,36,82,58,34,30.35,30.28,30.22,10,10,10,9,3,13,0.00,0,,149
2011-11-9,63,49,35,49,40,33,92,66,39,30.22,30.10,29.97,10,10,6,15,3,20,0.00,1,,160
2011-11-10,55,51,47,49,38,28,89,73,56,29.98,29.92,29.87,10,9,5,18,6,22,0.04,5,Rain,307
2011-11-11,46,41,36,29,25,22,70,56,41,30.12,29.98,29.86,10,10,10,25,15,32,0.00,5,,268
2011-11-12,63,48,32,33,27,21,66,48,30,30.14,30.12,30.07,10,10,10,15,8,20,0.00,0,,176
2011-11-13,59,48,37,36,32,28,65,51,36,30.12,30.03,29.94,10,10,10,18,6,25,0.00,0,,168
2011-11-14,66,59,51,51,44,30,64,53,41,29.96,29.87,29.77,10,10,10,16,11,21,0.00,0,,179
2011-11-15,65,61,56,56,53,49,93,77,60,29.99,29.93,29.79,10,10,7,25,6,30,0.08,8,Rain,173
2011-11-16,57,55,53,55,53,45,100,97,93,29.94,29.83,29.73,10,5,1,10,4,12,0.62,8,Rain,23
2011-11-17,50,46,41,41,27,21,80,62,43,30.19,30.04,29.93,10,10,10,21,11,28,0.00,6,,305
2011-11-18,43,36,29,18,15,12,58,44,29,30.51,30.43,30.28,10,10,10,18,7,24,0.00,0,,232
2011-11-19,51,41,30,27,20,15,58,45,32,30.43,30.36,30.27,10,10,10,15,5,17,0.00,0,,161
2011-11-20,64,54,44,54,45,30,77,63,49,30.24,30.19,30.16,10,8,2,12,7,15,0.00,5,Rain,177
2011-11-21,55,51,46,54,49,43,100,90,80,30.31,30.23,30.14,6,2,0,14,4,20,0.10,8,Fog-Rain,357
2011-11-22,49,47,45,47,45,44,100,97,93,30.30,30.17,29.80,10,3,2,8,5,10,0.64,8,Rain,13
2011-11-23,56,51,46,52,44,30,93,77,61,30.18,29.78,29.61,10,6,0,29,12,37,0.60,6,Fog-Rain,299
2011-11-24,59,47,34,36,32,28,76,60,43,30.31,30.27,30.18,10,10,10,14,6,18,0.00,0,,254
2011-11-25,62,50,38,33,31,29,70,50,29,30.31,30.25,30.20,10,10,10,10,6,15,0.00,0,,187
2011-11-26,63,52,40,42,32,25,57,45,33,30.30,30.24,30.17,10,10,10,8,5,10,0.00,0,,143
2011-11-27,65,53,40,49,42,33,73,65,56,30.16,30.10,30.04,10,10,10,18,4,22,0.00,0,,163
2011-11-28,66,62,57,56,51,49,80,68,56,30.13,30.06,29.98,10,10,10,18,10,24,0.00,6,,144
2011-11-29,64,58,51,58,51,37,93,83,73,29.96,29.75,29.61,10,9,2,24,13,31,0.38,7,Rain,154
2011-11-30,44,42,39,36,30,24,79,68,57,30.18,29.88,29.68,10,10,10,22,8,28,T,6,,258